Regional Weather Roundup
Issued by NWS

Home | Current Version | Previous Version | Graphics & Text | Print | Product List | Glossary On
Versions: 1 2 3 4 5 6 7 8 9 10 11 12 13 14 15 16 17 18 19 20 21 22 23 24 25 26 27 28 29 30 31 32 33 34 35 36 37 38 39 40 41 42 43 44 45 46 47 48 49 50
000
ASUS43 KDMX 181901
RWRIA

WEATHER ROUNDUP FOR IOWA
NATIONAL WEATHER SERVICE DES MOINES IA
100 PM CST WED JAN 18 2017

NOTE: "FAIR" INDICATES FEW OR NO CLOUDS BELOW 12,000 FEET WITH NO
SIGNIFICANT WEATHER AND/OR OBSTRUCTIONS TO VISIBILITY.

* - THESE STATIONS ARE NOT NWS STATIONS...THUS NOT UNDER NWS
QUALITY CONTROL.  THEY ALSO DO NOT REPORT WEATHER SUCH
AS PRECIPITATION OR FOG.

IAZ001>003-012>014-020>022-031>034-043>046-182000-
   NORTHWEST IOWA

CITY           SKY/WX    TMP DP  RH WIND       PRES   REMARKS
CARROLL *      SUNNY     43  39  87 SW17      29.93F
CHEROKEE *     SUNNY     44  40  88 S8        29.90F
DENISON *      SUNNY     43  39  87 S12       29.92F
LE MARS *      SUNNY     45  37  76 S14       29.88F
ORANGE CITY *  SUNNY     41  37  87 S10       29.88F
SHELDON *      SUNNY     41  39  93 S9        29.87F
SIOUX CITY     SUNNY     48  39  71 S8        29.90F
SPENCER        SUNNY     39  36  89 S9        29.89F WCI  33
STORM LAKE *   MIX PCPN  41  37  87 SW16      29.90F
$$

IAZ055>058-069>071-079>083-090>094-182000-
   SOUTHWEST IOWA

CITY           SKY/WX    TMP DP  RH WIND       PRES   REMARKS
ATLANTIC *     SUNNY     45  39  81 S14       29.97F
AUDUBON *      SUNNY     45  39  81 S9G17     29.97F
CLARINDA *     SUNNY     45  39  81 S13       30.05F
COUNCIL BLFS * SUNNY     45  39  81 S9        29.97F
CRESTON *      SUNNY     39  37  93 S15G21    30.03F WCI  31
HARLAN  *      SUNNY     45  39  81 S13       29.99F
LAMONI         CLOUDY    33  33 100 S12       30.06F FOG     WCI  24
RED OAK *      SUNNY     45  39  81 S16       30.01F
SHENANDOAH *   SUNNY     45  39  81 S12       30.03F
$$

IAZ047>049-059>061-072>074-084-182000-
   CENTRAL IOWA

CITY           SKY/WX    TMP DP  RH WIND       PRES   REMARKS
AMES           SUNNY     43  38  82 S9        29.98F
ANKENY *       SUNNY     45  36  70 S12       30.00F
BOONE *        SUNNY     43  37  81 S12       29.95F
CHARITON *     SUNNY     41  37  87 S14       30.04F
DES MOINES     MOSUNNY   46  37  71 S12       30.00F
GRINNELL*      CLOUDY    34  33  98 S13       30.03F FOG     WCI  25
KNOXVILLE *    SUNNY     41  36  81 S13       30.01F
MARSHALLTOWN   CLOUDY    36  35  96 S9        29.99F WCI  29
NEWTON *       SUNNY     39  36  87 S12       30.01F WCI  32
PELLA *        SUNNY     42  36  78 S10       30.05F
PERRY *          N/A     44  41  88 S12       29.97F
$$

IAZ004>006-015-016-023>025-035-036-182000-
   NORTH CENTRAL IOWA

CITY           SKY/WX    TMP DP  RH WIND       PRES   REMARKS
ALGONA *       SUNNY     41  37  87 S12       29.91F
CLARION *      SUNNY     37  37 100 S14       29.94F WCI  29
ESTHERVILLE    SUNNY     37  35  92 S10       29.88F WCI  30
FORT DODGE *   SUNNY     41  34  75 S14       29.94F
MASON CITY     SUNNY     34  31  88 S13       29.94F WCI  25
FOREST CITY *    N/A     36  36 100 S9        29.92F WCI  29
WEBSTER CITY * SUNNY     37  37 100 S14       29.93F WCI  29
IOWA FALLS *   CLOUDY    33  32  96 S9        29.97F FOG     WCI  25
$$

IAZ007>011-017>019-026>030-037>042-050>054-066-182000-
   NORTHEAST IOWA

CITY           SKY/WX    TMP DP  RH WIND       PRES   REMARKS
CEDAR RAPIDS   CLOUDY    33  32  96 S15       30.03F FOG     WCI  23
CHARLES CITY * CLOUDY    32  32 100 S16       29.97F FOG     WCI  21
CLINTON *      PTSUNNY   39  33  79 SW16      30.06F WCI  30
DECORAH *      CLOUDY    32  30  93 S10G20    29.97S FOG     WCI  24
DUBUQUE        CLOUDY    33  31  92 SW14      30.02F WCI  23
MONTICELLO *   CLOUDY    34  32  93 S13       30.04F FOG     WCI  25
OELWEIN *      FOG       32  32 100 S12G18    30.01F VSB 1   WCI  23
WATERLOO       CLOUDY    33  31  92 S8        30.00F FOG     WCI  26
$$

IAZ064-065-067-068-078-182000-
   EAST CENTRAL IOWA

CITY           SKY/WX    TMP DP  RH WIND       PRES   REMARKS
DAVENPORT      MOSUNNY   36  33  89 S9        30.07F WCI  29
IOWA CITY      CLOUDY    36  32  85 SW10      30.08F WCI  28
MUSCATINE *    CLOUDY    37  32  81 S13       30.09F WCI  29
QUAD CITIES    CLOUDY    37  32  82 SW12      30.07F WCI  29
$$

IAZ062-063-075>077-085>089-095>099-182000-
   SOUTHEAST IOWA

CITY           SKY/WX    TMP DP  RH WIND       PRES   REMARKS
BURLINGTON     CLOUDY    39  36  89 S14       30.09F WCI  31
FAIRFIELD *    PTSUNNY   39  36  87 S13       30.07F WCI  32
FORT MADISON * PTSUNNY   43  37  81 SW10G16   30.10F
KEOKUK *       PTSUNNY   41  36  81 SW10      30.10F
OSKALOOSA *      N/A     40  37  87 S13       30.05F WCI  33
OTTUMWA        SUNNY     42  36  79 S13       30.05F
WASHINGTON *   CLOUDY    39  36  87 S13       30.07F WCI  32
$$

ABBREVIATIONS USED IN REMARKS
   TC - TEMPERATURES IN CELSIUS
  WCI - WIND CHILL INDEX
   HX - HEAT INDEX
  VSB - VISIBILITY
$$




USA.gov is the U.S. government's official web portal to all federal, state and local government web resources and services.